Location: Unspecified
(35.8254°N, 0.0000°E)
Time: 11:38:46
(UTC+00:00)

Stella - Visible Passes

Search period start: 04 April 2026 00:00
Search period end: 14 April 2026 00:00
Orbit: 795 x 806 km, 98.8° (Epoch: 29 March)

Date Brightness Start Highest point End Pass type
(mag) Time Alt. Az. Time Alt. Az. Time Alt. Az.
4 Apr ? 20:53:32 36° NNE 20:53:32 36° NNE 20:56:52 10° N visible
4 Apr ? 22:34:27 12° WNW 22:34:27 12° WNW 22:34:59 10° NW visible
5 Apr ? 20:26:32 26° NE 20:26:32 26° NE 20:29:50 10° N visible
5 Apr ? 22:07:28 20° NW 22:07:28 20° NW 22:09:32 10° NW visible
6 Apr ? 19:59:32 16° ENE 19:59:32 16° ENE 20:02:17 10° NNE visible
6 Apr ? 21:40:28 33° NW 21:40:28 33° NW 21:43:26 10° NNW visible
7 Apr ? 21:13:28 43° N 21:13:28 43° N 21:16:57 10° N visible
8 Apr ? 20:46:28 37° NE 20:46:28 37° NE 20:50:10 10° N visible
8 Apr ? 22:27:24 15° WNW 22:27:24 15° WNW 22:28:45 10° NW visible
9 Apr ? 20:19:28 24° NE 20:19:28 24° NE 20:23:02 10° NNE visible
9 Apr ? 22:00:24 26° NW 22:00:24 26° NW 22:03:05 10° NNW visible
10 Apr ? 19:52:28 14° ENE 19:52:35 14° ENE 19:55:13 10° NNE visible
10 Apr ? 21:33:24 41° NW 21:33:24 41° NW 21:36:51 10° NNW visible
11 Apr ? 21:06:24 49° NNE 21:06:24 49° NNE 21:10:18 10° N visible
12 Apr ? 20:39:24 35° NE 20:39:24 35° NE 20:43:26 10° N visible
12 Apr ? 22:20:20 18° WNW 22:20:20 18° WNW 22:22:26 10° NW visible
13 Apr ? 20:12:24 21° ENE 20:12:24 21° ENE 20:16:11 10° NNE visible
13 Apr ? 21:53:20 32° WNW 21:53:20 32° WNW 21:56:35 10° NNW visible
